Weather History for Lampasas, TX

Change the Weather History Date:

Saturday, March 2, 2013

  Actual Average (KGRK) Record (KGRK)
Temperature  
Mean Temperature 46 °F -  
Max Temperature 60 °F 63 °F 86 °F (1999)
Min Temperature 33 °F 42 °F 21 °F (2014)
Degree Days  
Heating Degree Days 18    
Moisture  
Dew Point 29 °F    
Average Humidity 56    
Maximum Humidity 87    
Minimum Humidity 29    
Precipitation  
Precipitation 0.00 in - - ()
Sea Level Pressure  
Sea Level Pressure 30.32 in    
Wind  
Wind Speed 6 mph (NW)    
Max Wind Speed 14 mph    
Max Gust Speed 20 mph    
Visibility 10 miles    
Events      
Averages and records for this station are not official NWS values.
T = Trace of Precipitation, MM = Missing Value Source: NWS Daily Summary

Daily Weather History Graph

Daily Weather History Graph

Search for Another Location

Airport:

Trip Planner

Search our weather history database for the weather conditions in past years. The results will help you decide how hot, cold, wet, or windy it might be!

Date:

Astronomy

Mar. 02, 2013 Rise Set
Actual Time 6:57 AM CST 6:32 PM CST
Civil Twilight 6:33 AM CST 6:56 PM CST
Nautical Twilight 6:05 AM CST 7:24 PM CST
Astronomical Twilight 5:37 AM CST 7:52 PM CST
Moon 11:48 PM CST (3/2) 9:50 AM CST (3/2)
Length of Visible Light 12h 22m
Length of Day
11h 34m
Waning Gibbous, 74% of the Moon is Illuminated
Mar 2
Waning Gibbous
Mar 4
Last Quarter
Mar 11
New
Mar 19
First Quarter
Mar 27
Full

Hourly Weather History & Observations

Time (CST) Temp. Windchill Dew Point Humidity Pressure Visibility Wind Dir Wind Speed Gust Speed Precip Events Conditions
12:15 AM 41.0 °F 38.0 °F 28.4 °F 61% 30.30 in 10.0 mi NW 4.6 mph - N/A   Scattered Clouds
12:35 AM 41.0 °F 38.0 °F 30.2 °F 65% 30.30 in 10.0 mi NW 4.6 mph - N/A   Mostly Cloudy
1:15 AM 41.0 °F 38.0 °F 30.2 °F 65% 30.31 in 10.0 mi NW 4.6 mph - N/A   Mostly Cloudy
1:35 AM 39.2 °F 35.9 °F 30.2 °F 70% 30.32 in 10.0 mi WNW 4.6 mph - N/A   Scattered Clouds
1:55 AM 39.2 °F 35.9 °F 30.2 °F 70% 30.32 in 10.0 mi NW 4.6 mph - N/A   Clear
2:15 AM 39.2 °F 35.9 °F 30.2 °F 70% 30.32 in 10.0 mi NW 4.6 mph - N/A   Clear
2:35 AM 39.2 °F 35.0 °F 30.2 °F 70% 30.32 in 10.0 mi NNW 5.8 mph - N/A   Clear
2:55 AM 39.2 °F 35.9 °F 30.2 °F 70% 30.32 in 10.0 mi NW 4.6 mph - N/A   Clear
3:15 AM 37.4 °F 33.8 °F 28.4 °F 70% 30.32 in 10.0 mi NW 4.6 mph - N/A   Clear
3:55 AM 37.4 °F 33.8 °F 30.2 °F 75% 30.33 in 10.0 mi WNW 4.6 mph - N/A   Clear
4:15 AM 37.4 °F 33.8 °F 28.4 °F 70% 30.34 in 10.0 mi NW 4.6 mph - N/A   Clear
4:35 AM 37.4 °F 33.8 °F 28.4 °F 70% 30.34 in 10.0 mi NW 4.6 mph - N/A   Clear
4:55 AM 35.6 °F 31.7 °F 28.4 °F 75% 30.35 in 10.0 mi NW 4.6 mph - N/A   Clear
5:15 AM 33.8 °F 27.0 °F 28.4 °F 81% 30.35 in 10.0 mi NNW 8.1 mph - N/A   Clear
5:35 AM 33.8 °F 27.7 °F 28.4 °F 81% 30.36 in 10.0 mi NNW 6.9 mph - N/A   Clear
5:55 AM 33.8 °F 28.6 °F 28.4 °F 81% 30.35 in 10.0 mi NNW 5.8 mph - N/A   Clear
6:15 AM 33.8 °F 29.6 °F 28.4 °F 81% 30.36 in 10.0 mi NNW 4.6 mph - N/A   Clear
6:35 AM 33.8 °F 28.6 °F 30.2 °F 87% 30.37 in 10.0 mi NNW 5.8 mph - N/A   Clear
6:55 AM 33.8 °F 27.7 °F 30.2 °F 87% 30.37 in 10.0 mi NNW 6.9 mph - N/A   Clear
7:15 AM 33.8 °F 27.7 °F 30.2 °F 87% 30.39 in 10.0 mi NNW 6.9 mph - N/A   Clear
7:35 AM 33.8 °F 28.6 °F 30.2 °F 87% 30.39 in 10.0 mi NNW 5.8 mph - N/A   Clear
7:55 AM 33.8 °F 27.7 °F 30.2 °F 87% 30.40 in 10.0 mi North 6.9 mph - N/A   Clear
8:15 AM 35.6 °F 29.2 °F 30.2 °F 81% 30.41 in 10.0 mi NNW 8.1 mph - N/A   Clear
8:35 AM 37.4 °F 30.8 °F 30.2 °F 75% 30.41 in 10.0 mi North 9.2 mph - N/A   Clear
8:55 AM 37.4 °F 29.8 °F 30.2 °F 75% 30.41 in 10.0 mi North 11.5 mph 18.4 mph N/A   Clear
9:15 AM 39.2 °F 32.5 °F 28.4 °F 65% 30.42 in 10.0 mi North 10.4 mph 16.1 mph N/A   Clear
9:35 AM 41.0 °F 34.7 °F 28.4 °F 61% 30.42 in 10.0 mi North 10.4 mph - N/A   Clear
9:55 AM 41.0 °F 34.3 °F 28.4 °F 61% 30.42 in 10.0 mi North 11.5 mph 16.1 mph N/A   Clear
10:15 AM 42.8 °F 37.0 °F 28.4 °F 57% 30.42 in 10.0 mi NNW 10.4 mph 16.1 mph N/A   Clear
10:35 AM 44.6 °F 38.8 °F 26.6 °F 49% 30.42 in 10.0 mi NNW 11.5 mph 17.3 mph N/A   Clear
10:55 AM 46.4 °F 41.1 °F 26.6 °F 46% 30.41 in 10.0 mi NNW 11.5 mph 16.1 mph N/A   Clear
11:15 AM 50.0 °F - 28.4 °F 43% 30.41 in 10.0 mi NNW 12.7 mph 17.3 mph N/A   Clear
11:35 AM 50.0 °F - 24.8 °F 37% 30.40 in 10.0 mi NW 11.5 mph - N/A   Clear
11:55 AM 50.0 °F - 23.0 °F 35% 30.40 in 10.0 mi NNW 11.5 mph 19.6 mph N/A   Clear
12:15 PM 50.0 °F - 23.0 °F 35% 30.39 in 10.0 mi NW 9.2 mph 16.1 mph N/A   Clear
12:35 PM 51.8 °F - 24.8 °F 35% 30.37 in 10.0 mi NNW 8.1 mph - N/A   Clear
12:55 PM 51.8 °F - 24.8 °F 35% 30.36 in 10.0 mi NNW 10.4 mph 18.4 mph N/A   Clear
1:15 PM 53.6 °F - 26.6 °F 35% 30.35 in 10.0 mi NNW 10.4 mph 18.4 mph N/A   Clear
1:35 PM 53.6 °F - 26.6 °F 35% 30.34 in 10.0 mi North 9.2 mph - N/A   Clear
1:55 PM 53.6 °F - 26.6 °F 35% 30.33 in 10.0 mi NNW 11.5 mph 18.4 mph N/A   Clear
2:15 PM 55.4 °F - 28.4 °F 36% 30.31 in 10.0 mi NNW 13.8 mph 17.3 mph N/A   Clear
2:35 PM 57.2 °F - 28.4 °F 33% 30.31 in 10.0 mi NNW 11.5 mph 18.4 mph N/A   Clear
2:55 PM 57.2 °F - 28.4 °F 33% 30.30 in 10.0 mi North 8.1 mph 17.3 mph N/A   Clear
3:15 PM 57.2 °F - 28.4 °F 33% 30.29 in 10.0 mi North 9.2 mph - N/A   Clear
3:35 PM 59.0 °F - 28.4 °F 31% 30.28 in 10.0 mi NNW 9.2 mph 16.1 mph N/A   Clear
3:55 PM 59.0 °F - 28.4 °F 31% 30.27 in 10.0 mi WNW 4.6 mph - N/A   Clear
4:15 PM 60.8 °F - 28.4 °F 29% 30.26 in 10.0 mi WNW 5.8 mph - N/A   Clear
4:35 PM 60.8 °F - 28.4 °F 29% 30.26 in 10.0 mi NW 8.1 mph 17.3 mph N/A   Clear
4:55 PM 60.8 °F - 28.4 °F 29% 30.26 in 10.0 mi WNW 5.8 mph - N/A   Clear
5:35 PM 60.8 °F - 28.4 °F 29% 30.25 in 10.0 mi NW 5.8 mph - N/A   Clear
5:55 PM 59.0 °F - 28.4 °F 31% 30.25 in 10.0 mi Calm Calm - N/A   Clear
6:15 PM 57.2 °F - 28.4 °F 33% 30.26 in 10.0 mi Calm Calm - N/A   Clear
6:35 PM 53.6 °F - 30.2 °F 41% 30.25 in 10.0 mi Calm Calm - N/A   Clear
6:55 PM 51.8 °F - 30.2 °F 44% 30.26 in 10.0 mi Calm Calm - N/A   Clear
7:15 PM 50.0 °F - 32.0 °F 50% 30.26 in 10.0 mi Calm Calm - N/A   Clear
7:35 PM 51.8 °F - 30.2 °F 44% 30.26 in 10.0 mi Calm Calm - N/A   Clear
7:55 PM 48.2 °F - 32.0 °F 54% 30.26 in 10.0 mi Calm Calm - N/A   Clear
8:15 PM 46.4 °F 45.2 °F 32.0 °F 57% 30.25 in 10.0 mi WSW 3.5 mph - N/A   Clear
8:35 PM 48.2 °F - 32.0 °F 54% 30.25 in 10.0 mi Calm Calm - N/A   Clear
8:55 PM 42.8 °F - 32.0 °F 66% 30.25 in 10.0 mi Calm Calm - N/A   Clear
9:15 PM 46.4 °F - 32.0 °F 57% 30.25 in 10.0 mi Calm Calm - N/A   Clear
9:35 PM 46.4 °F - 32.0 °F 57% 30.25 in 10.0 mi Calm Calm - N/A   Clear
9:55 PM 42.8 °F 41.1 °F 32.0 °F 66% 30.25 in 10.0 mi WSW 3.5 mph - N/A   Clear
10:15 PM 44.6 °F - 30.2 °F 57% 30.25 in 10.0 mi Calm Calm - N/A   Clear
10:35 PM 44.6 °F - 30.2 °F 57% 30.25 in 10.0 mi Calm Calm - N/A   Clear
10:55 PM 42.8 °F - 30.2 °F 61% 30.24 in 10.0 mi Calm Calm - N/A   Clear
11:15 PM 42.8 °F - 30.2 °F 61% 30.24 in 10.0 mi Calm Calm - N/A   Clear
11:35 PM 42.8 °F - 30.2 °F 61% 30.24 in 10.0 mi Calm Calm - N/A   Clear
11:55 PM 41.0 °F - 30.2 °F 65% 30.24 in 10.0 mi Calm Calm - N/A   Clear